sat.trackr.live / text

‹ back to catalog

STARLINK-32689

NORAD 62440 · 2024-251J

PAYLOAD ACTIVE UNKNOWN

§ Identity

Operator
Country
US
Launch date
2024-12-29
Launch site
AFWTR
Launch vehicle
Mass (kg)
RCS (m²)

Purposes: comms

External: N2YO · Heavens-Above · Gunter

§ Orbital elements

Epoch: 2026-09-21T20:23:00.981888Z

Period
93.85 min
Inclination
53.1584°
Eccentricity
0.0001095
Mean motion
15.34376933 rev/d
Perigee alt
462.0 km
Apogee alt
463.5 km
Semi-major
6,840.9 km
B*
-1.6732e-4
RAAN
141.1610°
Arg perigee
81.1600°
Mean anomaly
278.9526°
Rev number
9,802

§ Raw data

STARLINK-326891 62440U 24251J   26264.84931692 -.00006021  00000+0 -16732-3 0  99942 62440  53.1584 141.1610 0001095  81.1600 278.9526 15.34376933 98021

JSON: /api/v1/satellites/62440 · /tle

For live sub-satellite position, see the globe view (requires WebGL).

§ Visibility from observer

Set your observer location to see the next 7 days of passes ≥ 10°. The values pass through the URL so the page stays shareable.

No JS? Fill the form by hand. The geolocation button needs JavaScript.